The Internet Pinball Serial Number Database or IPSND collects serial numbers of pinball machines and publishes a database of these on the Internet. Our goal is to make available a registration of all pinball machines in existence and allow tools for slicing, dicing and visualization of the data.

Games: 6,267  Serials: 52,393  Visitors: 33,350,574  Members: 3,889  Photos: 29,113  Lat/Lng: 25,524  Masks: 52,393(836.01 %)  Traits: 509  Nudges: 148,034  Backglasses: 1,862
  Most Serials: Twilight Zone(1,084)  Most Submissions: Dennis Braun(4,113)  Most Points: Dennis Braun(30,564)  Highest Quality: Jim Butler(9.15)  Most Nudges: King of Pinball(19,857)
Submitter: Fun House
Member Since: Thursday, September 22, 2016
Submissions: 2,695 (3rd)
SerialBot: 22,125 Points Total (3rd), 7.22 Average Score (3,232nd)
Nudges: 2,676(17th)
DateGameSerialNumberGame PartSerialBotDetails
 Item 1 to 100 of 2695
Page:of 27 Page size:
12/14/2019 Elvira's House of Horrors (Premium Edition) 299367 Complete Game 299367
12/14/2019 Jurassic Park (Pro) 299224 Complete Game 299224
12/13/2019 Monopoly™ E164773 Complete Game E164773
12/13/2019 Judge Dredd 20220197762 Other Parts 20220197762
12/13/2019 Popeye Saves the Earth 50222365392 Other Parts 50222365392
12/13/2019 Bram Stoker's Dracula 51401055682 Other Parts 51401055682
12/13/2019 WHO dunnit 51444100980 Other Parts 51444100980
12/13/2019 Star Trek: The Next Generation 51423429171 Complete Game 51423429171
12/13/2019 Star Wars Episode I 51469100550 Complete Game 51469100550
12/13/2019 Star Wars Episode I 52069104927 Complete Game 52069104927
12/2/2019 Terminator 2: Judgment Day 50013I776253 Complete Game 50013I776253
11/30/2019 Harley-Davidson® (1st Edition) E149805 Complete Game E149805
11/30/2019 Terminator 2: Judgment Day 50013I975169 Other Parts 50013I975169
11/30/2019 Theatre of Magic 53339104429 Complete Game 53339104429
11/30/2019 The Getaway: High Speed II 50004I858728 Other Parts 50004I858728
11/30/2019 Fish Tales 50005I026176 Complete Game 50005I026176
11/30/2019 The Machine: Bride of Pin·bot 50002660178 Complete Game 50002660178
11/28/2019 Surf Queens 5293 Complete Game 5293
11/28/2019 Flash Gordon EFG5558 Complete Game EFG5558
11/24/2019 Ripley's Believe It or Not!® E180443 Complete Game E180443
11/24/2019 Twilight Zone 50220205022 Complete Game 50220205022
11/24/2019 Guardians of the Galaxy (Pro) E274206 Complete Game E274206
11/24/2019 Star Wars (Pro) E269491 Complete Game E269491
11/24/2019 James Cameron’s Avatar (Limited Edition) E228105 Complete Game E228105
11/24/2019 The Getaway: High Speed II 50004854346 Other Parts 50004854346
11/24/2019 High Speed 54186781 Other Parts 54186781
11/24/2019 Star Trek EST17564 Complete Game EST17564
11/24/2019 Xenon EXE10122 Complete Game EXE10122
11/24/2019 Big Shot 07034 Complete Game 07034
11/23/2019 Twilight Zone 52720123632 Complete Game 52720123632
11/22/2019 Hokus Pokus 2761 Complete Game 2761
11/19/2019 The Addams Family 20017594299 Complete Game 20017594299
11/19/2019 Class of 1812 83083 Complete Game 83083
11/17/2019 Firepower 428457 Complete Game 428457
11/16/2019 2624 Other Parts 2624
11/16/2019 Medieval Madness (Remake Standard Edition) MM1813 Complete Game MM1813
11/16/2019 Iron Man (Pro Vault Edition) 255574 Complete Game 255574
11/16/2019 Cirqus Voltaire 53362401545 Complete Game 53362401545
11/16/2019 The Wizard of Oz Emerald City Limited Edition 08706123 Complete Game 08706123
11/14/2019 Star Trek: The Next Generation 53323264112 Other Parts 53323264112
11/14/2019 Indianapolis 500 50326102181 Other Parts 50326102181
11/14/2019 Jokerz! 567I195156 Other Parts 567I195156
11/14/2019 High Speed 541I76413 Other Parts 541I76413
11/14/2019 Theatre of Magic 50439100972 Other Parts 50439100972
11/14/2019 The Flintstones 52529103641 Other Parts 52529103641
11/14/2019 The Addams Family 20017I047267 Complete Game 20017I047267
11/14/2019 Eight Ball Deluxe Limited Edition E8B1855 Other Parts E8B1855
11/14/2019 Revenge From Mars 59570102916 Other Parts 59570102916
11/14/2019 World Cup Soccer 50231107912 Other Parts 50231107912
11/14/2019 Banzai Run 566I138987 Other Parts 566I138987
11/14/2019 Star Trek: The Next Generation 51323417931 Other Parts 51323417931
11/12/2019 Red & Ted's Road Show 53324100860 Complete Game 53324100860
11/12/2019 Demolition Man 50228509631 Complete Game 50228509631
11/12/2019 High Speed 541I82752 Complete Game 541I82752
11/9/2019 Creature from the Black Lagoon 20418901590 Complete Game 20418901590
11/9/2019 Space Shuttle 53533254 Complete Game 53533254
11/9/2019 Speakeasy ESE2619 Complete Game ESE2619
11/4/2019 Funhouse 50003I745575 Complete Game 50003I745575
11/4/2019 ESM8751 Other Parts ESM8751
10/22/2019 Doctor Who 20206693830 Other Parts 20206693830
10/22/2019 Twilight Zone 50220163871 Other Parts 50220163871
10/22/2019 Taxi 553I166282 Other Parts 553I166282
10/22/2019 Twilight Zone 50220175321 Other Parts 50220175321
10/22/2019 Terminator 2: Judgment Day 50013I978252 Other Parts 50013I978252
10/22/2019 The Addams Family 20017I045635 Other Parts 20017I045635
10/22/2019 Indiana Jones: The Pinball Adventure 51017327381 Other Parts 51017327381
10/22/2019 The Getaway: High Speed II 50004I095025 Other Parts 50004I095025
10/22/2019 The Getaway: High Speed II 50004I857006 Other Parts 50004I857006
10/22/2019 The Machine: Bride of Pin·bot 50002I669722 Other Parts 50002I669722
10/22/2019 Indiana Jones: The Pinball Adventure 52217182822 Other Parts 52217182822
10/22/2019 White Water 50218746740 Other Parts 50218746740
10/21/2019 Flash Gordon EFG9751 Complete Game EFG9751
10/5/2019 Revenge From Mars 59570100503 Other Parts 59570100503
10/4/2019 Twilight Zone 50120118711 Other Parts 50120118711
10/4/2019 Bram Stoker's Dracula 50201208902 Other Parts 50201208902
10/4/2019 Bram Stoker's Dracula 50201208902 Other Parts 50201208902
10/4/2019 Indiana Jones: The Pinball Adventure 51017143022 Complete Game 51017143022
9/26/2019 Gridiron 06072 Complete Game 06072
9/22/2019 Indiana Jones: The Pinball Adventure 53317321121 Complete Game 53317321121
9/22/2019 Revenge From Mars 53370101299 Other Parts 53370101299
9/10/2019 F-14 Tomcat 554105407 Complete Game 554105407
9/6/2019 AC/DC (Pro Vault Edition) E284517 Complete Game E284517
9/5/2019 Lethal Weapon 3 68087 Complete Game 68087
9/5/2019 The Addams Family 20017593396 Complete Game 20017593396
9/1/2019 KISS (Pro) 254229 Complete Game 254229
9/1/2019 AC/DC (Pro Vault Edition) 280146 Complete Game 280146
9/1/2019 Aerosmith (Pro) 267192 Complete Game 267192
8/29/2019 Terminator 2: Judgment Day 50013I775387 Complete Game 50013I775387
8/29/2019 Terminator 2: Judgment Day 50013I778344 Complete Game 50013I778344
8/18/2019 Earthshaker 568210763 Complete Game 568210763
8/15/2019 Indiana Jones: The Pinball Adventure 50417236071 Other Parts 50417236071
8/15/2019 High Speed 541I83665 Other Parts 541I83665
8/15/2019 Star Trek: The Next Generation 50223436611 Other Parts 50223436611
8/15/2019 High Speed 541I79254 Other Parts 541I79254
8/15/2019 High Speed 541I87747 Other Parts 541I87747
8/15/2019 High Speed 541I86047 Other Parts 541I86047
8/15/2019 EPA8241 Other Parts EPA8241
8/15/2019 Mystic EMY2744 Other Parts EMY2744
8/15/2019 WHO dunnit 53344102341 Complete Game 53344102341
8/15/2019 King of Diamonds 17 Complete Game 17

Supported Browsers
Back 5 | Random | Forward 5 | List ]